SQ5AAG-2 Weather Reports


time (UTC)temp
C
wind
direction
speed
KPH
gust
KPH
rain 1hr
cm
rain 24hr
cm
rain mn
cm
humidity
%
barometer
mb
20260905123528 19 22 0.0 14.5 0.00 0.10 0.00 55 997.5
20260905122527 19 0 11.3 14.5 0.00 0.10 0.00 53 997.5
20260905120135 19 337 17.7 17.7 0.00 0.10 0.00 52 997.4
20260905115634 20 22 4.8 14.5 0.00 0.10 0.00 52 997.4
20260905115134 20 22 0.0 19.3 0.00 0.10 0.00 50 997.4
20260905114634 20 22 0.0 9.7 0.00 0.10 0.00 51 997.5
20260905114135 20 22 1.6 14.5 0.00 0.10 0.00 53 997.5
20260905113633 20 0 9.7 14.5 0.00 0.10 0.00 54 997.2
20260905113133 19 0 12.9 12.9 0.00 0.10 0.00 53 997.2
20260905112633 19 0 12.9 12.9 0.00 0.10 0.00 53 997.3
20260905111632 19 0 12.9 12.9 0.00 0.10 0.00 56 997.2
20260905111132 19 0 8.0 14.5 0.00 0.10 0.00 56 997.1
20260905110631 19 0 14.5 14.5 0.00 0.10 0.00 55 997.3
20260905110136 20 0 4.8 12.9 0.00 0.10 0.00 55 997.3
20260905105631 20 45 12.9 12.9 0.00 0.10 0.00 55 997.2
20260905105131 20 45 3.2 11.3 0.00 0.10 0.00 56 997.0
20260905104630 20 0 4.8 11.3 0.00 0.10 0.00 56 996.9
20260905104130 19 22 11.3 12.9 0.00 0.10 0.00 56 996.9
20260905103630 19 0 4.8 11.3 0.00 0.10 0.00 56 996.8
20260905103129 20 22 11.3 17.7 0.00 0.10 0.00 56 996.8
20260905102629 20 22 17.7 17.7 0.00 0.10 0.00 58 996.7
20260905102129 20 292 3.2 4.8 0.00 0.10 0.00 57 996.8
20260905101628 19 22 4.8 19.3 0.00 0.10 0.00 57 996.8
20260905101129 19 22 19.3 19.3 0.00 0.10 0.00 57 996.6
20260905100628 19 22 12.9 12.9 0.00 0.10 0.00 57 996.9
20260905100128 18 0 11.3 11.3 0.00 0.10 0.00 60 996.8
20260905095629 18 22 0.0 9.7 0.00 0.10 0.00 61 996.8
20260905094628 18 45 11.3 12.9 0.00 0.10 0.00 61 996.8
20260905094126 18 22 11.3 12.9 0.00 0.10 0.00 60 996.8
20260905093126 18 0 11.3 11.3 0.00 0.10 0.00 62 996.7
20260905092626 18 22 0.0 25.7 0.00 0.10 0.00 61 996.7
20260905092125 18 22 16.1 22.5 0.00 0.10 0.00 61 996.7
20260905091625 18 337 22.5 22.5 0.00 0.10 0.00 61 996.5
20260905091125 18 22 9.7 12.9 0.00 0.10 0.00 64 996.4
20260905090624 18 337 12.9 14.5 0.00 0.10 0.00 63 996.5
20260905090124 18 0 11.3 11.3 0.00 0.10 0.00 63 996.4
20260905085624 18 45 1.6 14.5 0.00 0.10 0.00 64 996.3
20260905085124 18 0 12.9 14.5 0.00 0.10 0.00 65 996.4
20260905084623 18 0 11.3 11.3 0.00 0.10 0.00 65 996.4
20260905084123 18 22 0.0 3.2 0.00 0.10 0.00 66 996.3
20260905083623 18 45 0.0 8.0 0.00 0.10 0.00 66 996.3
20260905083122 18 0 8.0 9.7 0.00 0.10 0.00 67 996.3
20260905082622 18 0 1.6 14.5 0.00 0.10 0.00 66 996.1
20260905082122 18 22 0.0 11.3 0.00 0.10 0.00 67 996.1
20260905081623 18 22 0.0 0.0 0.00 0.10 0.00 68 996.1
20260905081121 18 22 0.0 19.3 0.00 0.10 0.00 68 996.3
20260905080621 17 0 19.3 19.3 0.00 0.10 0.00 69 996.2
20260905080121 17 0 19.3 19.3 0.00 0.10 0.00 70 996.3
20260905075620 17 0 16.1 16.1 0.00 0.10 0.00 69 996.2
20260905075120 17 0 3.2 8.0 0.00 0.10 0.00 70 996.0
20260905074620 17 22 8.0 8.0 0.00 0.10 0.00 69 996.0
20260905074124 17 22 0.0 14.5 0.00 0.00 0.00 995.8
20260905074120 17 22 0.0 14.5 0.00 0.10 0.00 70 995.8
20260905073619 17 22 14.5 14.5 0.00 0.10 0.00 71 996.0
20260905073119 17 0 0.0 6.4 0.00 0.10 0.00 72 995.9
20260905072619 17 0 6.4 9.7 0.00 0.10 0.00 72 995.8
20260905072118 17 22 8.0 8.0 0.00 0.10 0.00 73 995.8
20260905071621 17 22 8.0 11.3 0.00 0.10 0.00 72 995.9
20260905071118 17 22 6.4 9.7 0.00 0.10 0.00 72 995.7
20260905070617 17 22 1.6 19.3 0.00 0.10 0.00 73 995.6
20260905070118 17 22 4.8 4.8 0.00 0.10 0.00 73 995.6
20260905065617 17 22 0.0 11.3 0.00 0.10 0.00 73 995.5
20260905065117 17 0 8.0 8.0 0.00 0.10 0.00 72 995.5
20260905064616 17 22 3.2 14.5 0.00 0.10 0.00 73 995.3
20260905064116 17 45 3.2 14.5 0.00 0.10 0.00 73 995.1
20260905064057 16 22 14.5 14.5 0.00 0.10 0.00 73 995.1
20260905063617 16 22 14.5 14.5 0.00 0.10 0.00 73 995.1
20260905063116 16 0 9.7 11.3 0.00 0.10 0.00 73 995.2
20260905062616 16 0 6.4 14.5 0.00 0.10 0.00 73 995.2